OBJECT D, 61872

Orbit data source: Space-Track

You're viewing an Uncataloged Satellite

Recently launched and/or uncataloged satellites may have evolving metadata. Metadata may include but not limited to: Owner, Maufacturer, Bus, Motor, and Mission.

OBJECT D, 61872 is a satellite owned by Hangtian Hongtu (CN) in SSO that was launched on Sat, 09 Nov 2024 UTC via a CHANG ZHENG 2C launch vehicle from the Jiuquan Satellite Launch Center, China (JSC). Unknown objects in Earth's orbit typically refer to objects detected orbiting the Earth but have not yet been identified or cataloged. These objects could be anything from previously untracked satellites, spent rocket stages, debris from satellite collisions, or even natural meteoroids temporarily captured by Earth's gravity.

Loading next visibility...
OBJECT D details
Identifier
61872, 2024-203D
Orbit
SSO
Last TLE update12 hours ago
Origin
Flag of CNHangtian Hongtu (CN / PRC)
ManufacturerYinhe
MissionOperational spacecraft
Bus & MotorPIESAT, Unknown motor
Mass270 kg wet, 270 kg dry
Launch date (UTC)
2024-11-09 (1 month ago)
Launch vehicle
CHANG ZHENG 2C
Launch site
Jiuquan Satellite Launch Center, China (JSC)
Object typeUnknown
Shape & HBRUnknown
Radar Cross SectionMedium (>0.1 m² and <1 m²)

Expand to show TLE details & history

TLE from 12 hours ago
0 OBJECT D
1 61872U 24203D   24348.42472107  .00011369  00000-0  61045-3 0  9992
2 61872  97.4955  52.7065 0018030 105.7485 254.5738 15.14945912  5181
Epoch: 2024-12-13T10:11Z
Definitive object data (Epoch: 2024-12-13T10:11:35.9Z)
Latitude0.00005°
Longitude177.21602°
Altitude527.554 km
Speed7.597 km/s
True Right ascension03h 30m 49s
True Declination0° 00' 00"
Sunlit
Object was in full shadow at TLE epoch
Visualization TLE readout
Latitude-3.12852°
Longitude-2.70499°
Altitude522.249 km
Speed7.603 km/s
Apparent Right ascension12h 52m 36s
Apparent Declination-30° 45' 19"
Sunlit
Object is in daylight
Visualization observer readout
Local Sidereal Time20:37:26
Azimuth259.085° W
Elevation-38.26°
Doppler factor1
Orbital elements
Apogee altitude530.553 km
Perigee altitude505.685 km
Semi-major axis6,896.256 km
Eccentricity0.001803
Inclination97.4955°
RAAN52.7065°
Arg. of periapsis105.7485°
True anomaly254.37475°
Mean anomaly254.5738°
Eccentric anomaly254.47427°
Mean motion3.78986 °/min
BSTAR0.00061045
Orbital period94.99 mins
Loading maneuver chart data...
Loading historical data...
Loading historical data...
Loading historical data...
Loading historical data...
Loading historical data...
Loading historical data...
Loading historical data...
Other satellites on launch #203 in the year 2024 (2024-11-09 UTC)

OBJECT D Visibility forecast

Observer location: undefined°, undefined

Span
Click to sort rows by Start time (UTC) header in descending order
Start Az.
Max El. time (UTC)
Max El. Az.
Max El.
End time (UTC)
End Az.
5 mins2024-12-14 03:46:36.139Z117.965° SE2024-12-14 03:49:36.139Z57.81° ENE20.648°2024-12-14 03:51:36.139Z22.13° NNE
4 mins2024-12-14 05:21:36.139Z230.594° WSW2024-12-14 05:23:36.139Z274.632° WNW19.913°2024-12-14 05:25:36.139Z310.903° NW
5 mins2024-12-14 16:53:36.139Z41.945° NE2024-12-14 16:55:36.139Z90.79° ESE29.399°2024-12-14 16:58:36.139Z160.292° S
|